Fecha;EUA;CER;SPREAD (EUA - CER)
02-01-2015;6.99;0.02;"6,97"
05-01-2015;6.89;0.02;"6,87"
06-01-2015;6.76;0.02;"6,74"
07-01-2015;6.79;0.03;"6,76"
08-01-2015;6.76;0.02;"6,74"
09-01-2015;6.71;0.03;"6,68"
12-01-2015;6.70;0.03;"6,67"
13-01-2015;7.30;0.04;"7,26"
14-01-2015;7.16;0.03;"7,13"
15-01-2015;7.13;0.03;"7,1"
16-01-2015;7.14;0.03;"7,11"
19-01-2015;7.21;0.03;"7,18"
20-01-2015;7.13;0.03;"7,1"
21-01-2015;7.30;0.03;"7,27"
22-01-2015;6.77;0.04;"6,73"
23-01-2015;6.82;0.03;"6,79"
26-01-2015;6.84;0.04;"6,8"
27-01-2015;6.83;0.03;"6,8"
28-01-2015;6.96;0.03;"6,93"
29-01-2015;7.04;0.03;"7,01"
30-01-2015;7.05;0.03;"7,02"
02-02-2015;7.11;0.03;"7,08"
03-02-2015;7.05;0.03;"7,02"
04-02-2015;6.92;0.03;"6,89"
05-02-2015;6.97;0.03;"6,94"
06-02-2015;6.95;0.03;"6,92"
09-02-2015;6.91;0.03;"6,88"
10-02-2015;7.12;0.04;"7,08"
11-02-2015;7.23;0.03;"7,2"
12-02-2015;7.37;0.03;"7,34"
13-02-2015;7.63;0.03;"7,6"
16-02-2015;7.65;0.03;"7,62"
17-02-2015;7.48;0.03;"7,45"
18-02-2015;7.49;0.03;"7,46"
19-02-2015;7.31;0.03;"7,28"
20-02-2015;7.30;0.03;"7,27"
23-02-2015;7.72;0.03;"7,69"
24-02-2015;7.45;0.03;"7,42"
25-02-2015;7.37;0.03;"7,34"
26-02-2015;7.06;0.03;"7,03"
27-02-2015;7.11;0.03;"7,08"
02-03-2015;6.94;0.03;"6,91"
03-03-2015;6.73;0.03;"6,7"
04-03-2015;7.02;0.03;"6,99"
05-03-2015;6.74;0.03;"6,71"
06-03-2015;6.81;0.03;"6,78"
09-03-2015;6.70;0.03;"6,67"
10-03-2015;6.83;0.03;"6,8"
11-03-2015;6.76;0.03;"6,73"
12-03-2015;6.43;0.03;"6,4"
13-03-2015;6.45;0.03;"6,42"
16-03-2015;6.48;0.02;"6,46"
17-03-2015;6.73;0.02;"6,71"
18-03-2015;6.73;0.03;"6,7"
19-03-2015;6.67;0.02;"6,65"
20-03-2015;7.02;0.03;"6,99"
23-03-2015;7.02;0.02;7
24-03-2015;7.03;0.02;"7,01"
25-03-2015;6.96;0.02;"6,94"
26-03-2015;6.93;0.03;"6,9"
27-03-2015;6.78;0.03;"6,75"
30-03-2015;6.88;0.02;"6,86"
31-03-2015;6.93;0.01;"6,92"
01-04-2015;7.15;0.44;"6,71"
02-04-2015;7.15;0.44;"6,71"
07-04-2015;7.11;0.47;"6,64"
08-04-2015;7.12;0.47;"6,65"
09-04-2015;7.02;0.53;"6,49"
10-04-2015;6.98;0.55;"6,43"
13-04-2015;6.81;0.53;"6,28"
14-04-2015;6.80;0.52;"6,28"
15-04-2015;6.85;0.54;"6,31"
16-04-2015;6.87;0.56;"6,31"
17-04-2015;6.83;0.55;"6,28"
20-04-2015;7.12;0.52;"6,6"
21-04-2015;7.08;0.53;"6,55"
22-04-2015;7.09;0.52;"6,57"
23-04-2015;7.26;0.52;"6,74"
24-04-2015;7.28;0.51;"6,77"
27-04-2015;7.15;0.51;"6,64"
28-04-2015;7.35;0.50;"6,85"
29-04-2015;7.43;0.51;"6,92"
30-04-2015;7.39;0.50;"6,89"
01-05-2015;7.48;0.49;"6,99"
04-05-2015;7.56;0.50;"7,06"
05-05-2015;7.53;0.49;"7,04"
06-05-2015;7.54;0.48;"7,06"
07-05-2015;7.43;0.46;"6,97"
08-05-2015;7.50;0.45;"7,05"
11-05-2015;7.62;0.45;"7,17"
12-05-2015;7.58;0.46;"7,12"
13-05-2015;7.65;0.47;"7,18"
14-05-2015;7.55;0.46;"7,09"
15-05-2015;7.59;0.46;"7,13"
18-05-2015;7.54;0.47;"7,07"
19-05-2015;7.32;0.45;"6,87"
20-05-2015;7.34;0.49;"6,85"
21-05-2015;7.29;0.47;"6,82"
22-05-2015;7.29;0.45;"6,84"
25-05-2015;7.36;0.45;"6,91"
26-05-2015;7.23;0.45;"6,78"
27-05-2015;7.20;0.44;"6,76"
28-05-2015;7.18;0.43;"6,75"
29-05-2015;7.31;0.47;"6,84"
01-06-2015;7.25;0.42;"6,83"
02-06-2015;7.41;0.43;"6,98"
03-06-2015;7.48;0.43;"7,05"
04-06-2015;7.40;0.43;"6,97"
05-06-2015;7.39;0.43;"6,96"
08-06-2015;7.44;0.43;"7,01"
09-06-2015;7.57;0.42;"7,15"
10-06-2015;7.54;0.43;"7,11"
12-06-2015;7.50;0.41;"7,09"
15-06-2015;7.52;0.41;"7,11"
16-06-2015;7.41;0.40;"7,01"
17-06-2015;7.47;0.40;"7,07"
18-06-2015;7.45;0.40;"7,05"
19-06-2015;7.41;0.40;"7,01"
22-06-2015;7.47;0.41;"7,06"
23-06-2015;7.49;0.41;"7,08"
24-06-2015;7.48;0.41;"7,07"
25-06-2015;7.54;0.41;"7,13"
26-06-2015;7.51;0.41;"7,1"
29-06-2015;7.34;0.42;"6,92"
30-06-2015;7.42;0.42;7
01-07-2015;7.46;0.42;"7,04"
02-07-2015;7.45;0.44;"7,01"
03-07-2015;7.42;0.43;"6,99"
06-07-2015;7.32;0.43;"6,89"
07-07-2015;7.43;0.45;"6,98"
08-07-2015;7.43;0.45;"6,98"
09-07-2015;7.44;0.46;"6,98"
10-07-2015;7.59;0.46;"7,13"
13-07-2015;7.77;0.45;"7,32"
14-07-2015;7.71;0.45;"7,26"
15-07-2015;7.74;0.45;"7,29"
16-07-2015;7.64;0.45;"7,19"
17-07-2015;7.72;0.45;"7,27"
20-07-2015;7.96;0.45;"7,51"
21-07-2015;7.94;0.46;"7,48"
22-07-2015;7.92;0.46;"7,46"
23-07-2015;8.03;0.47;"7,56"
24-07-2015;7.99;0.47;"7,52"
27-07-2015;7.99;0.45;"7,54"
28-07-2015;7.97;0.48;"7,49"
29-07-2015;8.03;0.47;"7,56"
30-07-2015;7.86;0.46;"7,4"
31-07-2015;7.84;0.46;"7,38"
03-08-2015;7.93;0.47;"7,46"
04-08-2015;7.87;0.45;"7,42"
05-08-2015;7.82;0.44;"7,38"
06-08-2015;7.82;0.44;"7,38"
07-08-2015;7.76;0.45;"7,31"
10-08-2015;7.90;0.48;"7,42"
11-08-2015;8.07;0.48;"7,59"
12-08-2015;8.16;0.49;"7,67"
13-08-2015;8.17;0.49;"7,68"
14-08-2015;8.28;0.50;"7,78"
17-08-2015;8.22;0.49;"7,73"
18-08-2015;8.24;0.50;"7,74"
19-08-2015;8.31;0.49;"7,82"
20-08-2015;8.34;0.50;"7,84"
21-08-2015;8.18;0.49;"7,69"
24-08-2015;8.18;0.48;"7,7"
25-08-2015;8.23;0.50;"7,73"
26-08-2015;8.07;0.50;"7,57"
27-08-2015;8.01;0.52;"7,49"
28-08-2015;8.09;0.51;"7,58"
31-08-2015;8.03;0.50;"7,53"
01-09-2015;7.99;0.51;"7,48"
02-09-2015;8.09;0.52;"7,57"
03-09-2015;8.16;0.52;"7,64"
04-09-2015;8.06;0.52;"7,54"
07-09-2015;8.06;0.50;"7,56"
08-09-2015;8.20;0.51;"7,69"
09-09-2015;8.25;0.52;"7,73"
10-09-2015;8.25;0.50;"7,75"
11-09-2015;8.24;0.51;"7,73"
14-09-2015;8.22;0.50;"7,72"
15-09-2015;8.15;0.51;"7,64"
16-09-2015;8.21;0.50;"7,71"
17-09-2015;8.20;0.51;"7,69"
18-09-2015;8.09;0.50;"7,59"
21-09-2015;7.96;0.50;"7,46"
22-09-2015;7.99;0.50;"7,49"
23-09-2015;8.05;0.50;"7,55"
24-09-2015;7.99;0.51;"7,48"
25-09-2015;7.99;0.51;"7,48"
28-09-2015;7.91;0.51;"7,4"
29-09-2015;7.95;0.51;"7,44"
30-09-2015;8.13;0.50;"7,63"
01-10-2015;8.15;0.53;"7,62"
02-10-2015;8.12;0.55;"7,57"
05-10-2015;8.18;0.62;"7,56"
06-10-2015;8.18;0.62;"7,56"
07-10-2015;8.08;0.64;"7,44"
08-10-2015;8.11;0.61;"7,5"
09-10-2015;8.32;0.61;"7,71"
12-10-2015;8.28;0.60;"7,68"
13-10-2015;8.31;0.58;"7,73"
14-10-2015;8.41;0.58;"7,83"
15-10-2015;8.38;0.58;"7,8"
16-10-2015;8.35;0.58;"7,77"
19-10-2015;8.32;0.59;"7,73"
20-10-2015;8.44;0.59;"7,85"
21-10-2015;8.41;0.60;"7,81"
22-10-2015;8.43;0.60;"7,83"
23-10-2015;8.60;0.59;"8,01"
26-10-2015;8.62;0.59;"8,03"
27-10-2015;8.59;0.60;"7,99"
28-10-2015;8.55;0.60;"7,95"
29-10-2015;8.64;0.61;"8,03"
30-10-2015;8.63;0.63;8
02-11-2015;8.59;0.64;"7,95"
03-11-2015;8.44;0.64;"7,8"
04-11-2015;8.39;0.62;"7,77"
05-11-2015;8.46;0.62;"7,84"
06-11-2015;8.40;0.63;"7,77"
09-11-2015;8.31;0.63;"7,68"
10-11-2015;8.43;0.64;"7,79"
11-11-2015;8.44;0.64;"7,8"
12-11-2015;8.37;0.65;"7,72"
13-11-2015;8.39;0.65;"7,74"
16-11-2015;8.53;0.65;"7,88"
17-11-2015;8.59;0.65;"7,94"
18-11-2015;8.56;0.66;"7,9"
19-11-2015;8.62;0.66;"7,96"
20-11-2015;8.50;0.66;"7,84"
23-11-2015;8.56;0.66;"7,9"
24-11-2015;8.65;0.63;"8,02"
25-11-2015;8.62;0.60;"8,02"
26-11-2015;8.60;0.60;8
27-11-2015;8.61;0.59;"8,02"
30-11-2015;8.58;0.61;"7,97"
01-12-2015;8.56;0.60;"7,96"
02-12-2015;8.48;0.60;"7,88"
03-12-2015;8.59;0.59;8
04-12-2015;8.51;0.58;"7,93"
07-12-2015;8.41;0.59;"7,82"
08-12-2015;8.41;0.58;"7,83"
09-12-2015;8.40;0.56;"7,84"
10-12-2015;8.36;0.56;"7,8"
11-12-2015;8.09;0.53;"7,56"
14-12-2015;8.08;0.52;"7,56"
15-12-2015;8.20;0.54;"7,66"
16-12-2015;8.13;0.53;"7,6"
17-12-2015;8.09;0.54;"7,55"
18-12-2015;8.08;0.53;"7,55"
21-12-2015;8.16;0.54;"7,62"
22-12-2015;8.25;0.53;"7,72"
23-12-2015;8.22;0.53;"7,69"
28-12-2015;8.33;0.54;"7,79"
29-12-2015;8.27;0.53;"7,74"
30-12-2015;8.21;0.52;"7,69"
31-12-2015;8.23;0.54;"7,69"
